TimeCST,TemperatureF,Dew PointF,Humidity,Sea Level PressureIn,VisibilityMPH,Wind Direction,Wind SpeedMPH,Gust SpeedMPH,PrecipitationIn,Events,Conditions,WindDirDegrees,DateUTC
12:53 AM,33.1,26.1,75,29.99,10.0,NW,12.7,-,N/A,,Overcast,320,2014-02-15 06:53:00
1:40 AM,33.8,26.6,75,30.01,10.0,WNW,10.4,-,N/A,,Overcast,300,2014-02-15 07:40:00
1:53 AM,32.0,26.1,79,30.02,10.0,NW,11.5,18.4,N/A,,Overcast,320,2014-02-15 07:53:00
2:44 AM,32.0,24.8,75,30.03,10.0,NW,9.2,20.7,N/A,,Overcast,320,2014-02-15 08:44:00
2:53 AM,30.9,23.0,72,30.04,10.0,NW,12.7,-,N/A,,Overcast,320,2014-02-15 08:53:00
3:53 AM,30.9,21.9,69,30.06,10.0,NNW,9.2,18.4,N/A,,Overcast,340,2014-02-15 09:53:00
4:53 AM,30.0,21.9,72,30.10,10.0,NW,8.1,-,N/A,,Overcast,320,2014-02-15 10:53:00
5:53 AM,28.9,19.0,67,30.12,10.0,NW,10.4,-,N/A,,Overcast,310,2014-02-15 11:53:00
6:53 AM,28.0,19.0,69,30.14,8.0,NW,8.1,-,N/A,,Overcast,320,2014-02-15 12:53:00
7:53 AM,28.9,19.9,69,30.15,8.0,NE,9.2,-,N/A,,Mostly Cloudy,50,2014-02-15 13:53:00
8:01 AM,28.4,19.4,69,30.15,7.0,NNE,5.8,-,N/A,,Scattered Clouds,30,2014-02-15 14:01:00
8:53 AM,30.9,19.0,61,30.19,9.0,Variable,3.5,-,N/A,,Partly Cloudy,0,2014-02-15 14:53:00
9:53 AM,32.0,18.0,56,30.21,10.0,NW,4.6,-,N/A,,Clear,320,2014-02-15 15:53:00
10:53 AM,35.1,18.0,50,30.24,10.0,Calm,Calm,-,N/A,,Clear,0,2014-02-15 16:53:00
11:53 AM,36.0,19.0,50,30.21,10.0,Calm,Calm,-,N/A,,Clear,0,2014-02-15 17:53:00
12:53 PM,39.0,21.9,50,30.20,10.0,West,3.5,-,N/A,,Clear,260,2014-02-15 18:53:00
1:53 PM,41.0,19.9,43,30.17,10.0,Variable,3.5,-,N/A,,Clear,0,2014-02-15 19:53:00
2:53 PM,41.0,21.0,45,30.14,10.0,East,4.6,-,N/A,,Clear,80,2014-02-15 20:53:00
3:53 PM,43.0,21.0,42,30.17,10.0,Calm,Calm,-,N/A,,Clear,0,2014-02-15 21:53:00
4:53 PM,41.0,21.9,47,30.14,10.0,ESE,4.6,-,N/A,,Mostly Cloudy,120,2014-02-15 22:53:00
5:53 PM,37.9,24.1,57,30.14,10.0,East,3.5,-,N/A,,Clear,80,2014-02-15 23:53:00
6:53 PM,37.0,23.0,57,30.13,10.0,SE,4.6,-,N/A,,Clear,140,2014-02-16 00:53:00
7:53 PM,33.1,24.1,70,30.12,10.0,SE,5.8,-,N/A,,Clear,140,2014-02-16 01:53:00
8:53 PM,35.1,24.1,64,30.11,10.0,SSE,3.5,-,N/A,,Clear,150,2014-02-16 02:53:00
9:53 PM,35.1,26.1,70,30.13,10.0,Calm,Calm,-,N/A,,Clear,0,2014-02-16 03:53:00
10:53 PM,35.1,26.1,70,30.13,10.0,Calm,Calm,-,N/A,,Clear,0,2014-02-16 04:53:00
11:53 PM,35.1,25.0,67,30.12,10.0,Calm,Calm,-,N/A,,Mostly Cloudy,0,2014-02-16 05:53:00